FW8496 Weather Reports


Display with metric or nautical units.
time (UTC)temp
F
wind
direction
speed
MPH
gust
MPH
rain 1hr
in
rain 24hr
in
rain mn
in
humidity
%
barometer
mb
20260505060055 58 284 4.0 11.0 0.00 0.00 0.00 31 1012.8
20260505055543 58 269 6.0 13.0 0.00 0.00 0.00 31 1013.0
20260505055043 58 281 5.0 13.0 0.00 0.00 0.00 31 1013.0
20260505054555 58 259 7.0 15.0 0.00 0.00 0.00 31 1012.9
20260505054042 58 257 7.0 15.0 0.00 0.00 0.00 31 1012.7
20260505053542 58 276 8.0 13.0 0.00 0.00 0.00 31 1012.7
20260505053058 58 273 5.0 15.0 0.00 0.00 0.00 31 1012.7
20260505052543 58 263 8.0 15.0 0.00 0.00 0.00 31 1012.7
20260505052043 58 258 5.0 9.0 0.00 0.00 0.00 32 1012.8
20260505051602 58 263 3.0 9.0 0.00 0.00 0.00 32 1012.7
20260505051045 58 280 3.0 10.0 0.00 0.00 0.00 32 1012.6
20260505050542 58 259 5.0 10.0 0.00 0.00 0.00 32 1012.7
20260505050103 58 271 3.0 10.0 0.00 0.00 0.00 32 1012.8
20260505041547 59 0 0.0 3.0 0.00 0.00 0.00 30 1012.9
20260505041043 59 0 0.0 4.0 0.00 0.00 0.00 29 1013.0
20260505040543 59 342 2.0 4.0 0.00 0.00 0.00 29 1012.9
20260505040050 59 336 2.0 6.0 0.00 0.00 0.00 29 1013.0
20260505035543 59 331 2.0 8.0 0.00 0.00 0.00 29 1013.0
20260505035042 60 309 4.0 8.0 0.00 0.00 0.00 29 1013.0
20260505034552 60 313 4.0 8.0 0.00 0.00 0.00 29 1013.0
20260505034043 60 309 3.0 8.0 0.00 0.00 0.00 28 1013.0
20260505033544 60 306 3.0 9.0 0.00 0.00 0.00 28 1012.9
20260505033049 60 311 3.0 11.0 0.00 0.00 0.00 27 1012.9
20260505032543 60 316 5.0 11.0 0.00 0.00 0.00 27 1012.8
20260505032048 60 314 4.0 10.0 0.00 0.00 0.00 27 1012.8
20260505031553 61 286 3.0 10.0 0.00 0.00 0.00 26 1012.7
20260505031043 61 309 4.0 9.0 0.00 0.00 0.00 26 1012.5
20260505030544 61 293 4.0 10.0 0.00 0.00 0.00 25 1012.5
20260505030047 61 313 5.0 13.0 0.00 0.00 0.00 25 1012.4
20260505025543 61 293 8.0 13.0 0.00 0.00 0.00 25 1012.3
20260505025043 61 307 7.0 16.0 0.00 0.00 0.00 25 1012.3
20260505024627 61 304 8.0 16.0 0.00 0.00 0.00 25 1012.2
20260505024043 62 309 8.0 16.0 0.00 0.00 0.00 24 1012.2
20260505023543 62 285 6.0 15.0 0.00 0.00 0.00 24 1012.1
20260505023055 62 315 6.0 14.0 0.00 0.00 0.00 24 1012.1
20260505022544 62 288 7.0 16.0 0.00 0.00 0.00 23 1012.0
20260505022043 62 300 8.0 16.0 0.00 0.00 0.00 23 1012.0
20260505021549 62 282 7.0 14.0 0.00 0.00 0.00 23 1011.9
20260505021042 62 250 7.0 16.0 0.00 0.00 0.00 22 1012.0
20260505020542 63 307 8.0 16.0 0.00 0.00 0.00 22 1012.0
20260505020053 63 284 10.0 16.0 0.00 0.00 0.00 21 1012.0
20260505015543 63 313 7.0 16.0 0.00 0.00 0.00 21 1012.0
20260505015045 63 288 7.0 18.0 0.00 0.00 0.00 21 1012.0
20260505014553 63 286 8.0 19.0 0.00 0.00 0.00 21 1012.0
20260505014046 64 297 9.0 19.0 0.00 0.00 0.00 20 1012.0
20260505013544 64 286 11.0 18.0 0.00 0.00 0.00 20 1011.9
20260505013102 64 285 7.0 14.0 0.00 0.00 0.00 20 1011.7
20260505012546 64 306 5.0 16.0 0.00 0.00 0.00 20 1011.6
20260505012044 64 302 7.0 16.0 0.00 0.00 0.00 19 1011.6
20260505011601 65 310 8.0 15.0 0.00 0.00 0.00 19 1011.6
20260505011042 65 268 8.0 19.0 0.00 0.00 0.00 19 1011.6
20260505010542 65 260 8.0 19.0 0.00 0.00 0.00 19 1011.6
20260505010107 65 298 10.0 19.0 0.00 0.00 0.00 19 1011.6
20260505005543 65 272 9.0 20.0 0.00 0.00 0.00 19 1011.7
20260505005043 65 288 10.0 20.0 0.00 0.00 0.00 18 1011.8
20260505004552 66 279 12.0 20.0 0.00 0.00 0.00 18 1011.8
20260505004042 66 300 8.0 19.0 0.00 0.00 0.00 18 1011.8
20260505003546 66 293 11.0 19.0 0.00 0.00 0.00 18 1011.9
20260505003056 66 285 8.0 26.0 0.00 0.00 0.00 18 1011.9
20260505002543 66 268 9.0 26.0 0.00 0.00 0.00 18 1011.8
20260505002043 66 286 10.0 21.0 0.00 0.00 0.00 18 1011.8
20260505001550 66 322 11.0 19.0 0.00 0.00 0.00 18 1011.7
20260505001042 67 279 10.0 19.0 0.00 0.00 0.00 18 1011.7
20260505000543 67 262 7.0 20.0 0.00 0.00 0.00 18 1011.9
20260505000058 67 292 9.0 20.0 0.00 0.00 0.00 18 1012.0
20260504235543 67 266 9.0 18.0 0.00 0.00 0.00 18 1012.0
20260504235043 67 274 8.0 17.0 0.00 0.00 0.00 19 1012.0
20260504234549 67 293 8.0 19.0 0.00 0.00 0.00 19 1012.0
20260504234043 67 260 8.0 20.0 0.00 0.00 0.00 18 1012.0
20260504233543 67 289 11.0 20.0 0.00 0.00 0.00 19 1012.0
20260504233104 68 328 11.0 20.0 0.00 0.00 0.00 19 1012.0
20260504232542 68 270 8.0 21.0 0.00 0.00 0.00 19 1012.0
20260504232042 68 276 11.0 21.0 0.00 0.00 0.00 18 1012.0
20260504231550 69 331 9.0 18.0 0.00 0.00 0.00 18 1011.9
20260504231043 69 295 7.0 19.0 0.00 0.00 0.00 19 1012.0
20260504230546 69 276 9.0 20.0 0.00 0.00 0.00 19 1012.1
20260504230053 69 301 12.0 20.0 0.00 0.00 0.00 19 1012.2
20260504225543 68 276 6.0 19.0 0.00 0.00 0.00 19 1012.3
20260504225042 68 288 10.0 19.0 0.00 0.00 0.00 19 1012.2
20260504224549 68 274 9.0 21.0 0.00 0.00 0.00 19 1012.2
20260504224043 68 290 12.0 21.0 0.00 0.00 0.00 19 1012.4
20260504223543 68 286 9.0 19.0 0.00 0.00 0.00 19 1012.4
20260504223058 68 321 9.0 19.0 0.00 0.00 0.00 19 1012.3
20260504222543 68 259 11.0 19.0 0.00 0.00 0.00 18 1012.4
20260504222042 68 288 8.0 19.0 0.00 0.00 0.00 17 1012.6
20260504221552 69 269 9.0 21.0 0.00 0.00 0.00 17 1012.6
20260504221042 69 310 10.0 21.0 0.00 0.00 0.00 17 1012.8
20260504220542 69 271 6.0 20.0 0.00 0.00 0.00 17 1012.6
20260504220056 69 286 12.0 20.0 0.00 0.00 0.00 16 1012.8
20260504215543 70 265 10.0 18.0 0.00 0.00 0.00 16 1013.0
20260504215042 70 298 11.0 18.0 0.00 0.00 0.00 16 1013.0
20260504214614 71 292 9.0 17.0 0.00 0.00 0.00 15 1013.0
20260504214043 71 298 7.0 15.0 0.00 0.00 0.00 15 1013.0
20260504213543 71 320 7.0 23.0 0.00 0.00 0.00 14 1012.8
20260504213055 70 231 9.0 23.0 0.00 0.00 0.00 15 1013.0
20260504212543 70 299 11.0 21.0 0.00 0.00 0.00 14 1013.2
20260504212044 70 294 9.0 21.0 0.00 0.00 0.00 15 1013.1
20260504211552 69 302 10.0 18.0 0.00 0.00 0.00 14 1013.3
20260504211046 69 270 10.0 17.0 0.00 0.00 0.00 14 1013.3
20260504210542 69 319 9.0 19.0 0.00 0.00 0.00 14 1013.4
20260504210055 69 256 10.0 24.0 0.00 0.00 0.00 14 1013.6
20260504205544 70 259 14.0 24.0 0.00 0.00 0.00 13 1013.7
20260504205043 70 250 8.0 18.0 0.00 0.00 0.00 15 1013.6
20260504204601 70 298 10.0 20.0 0.00 0.00 0.00 15 1013.9
20260504204053 69 268 11.0 23.0 0.00 0.00 0.00 15 1013.9
20260504203546 69 219 11.0 23.0 0.00 0.00 0.00 17 1014.0
20260504203046 69 205 9.0 18.0 0.00 0.00 0.00 17 1013.9
20260504202543 69 294 11.0 22.0 0.00 0.00 0.00 17 1014.1
20260504202043 69 275 8.0 22.0 0.00 0.00 0.00 18 1014.1
20260504201600 69 234 14.0 22.0 0.00 0.00 0.00 17 1014.2
20260504201047 70 217 8.0 17.0 0.00 0.00 0.00 18 1014.2
20260504200543 70 286 6.0 22.0 0.00 0.00 0.00 19 1014.1
20260504200051 70 285 11.0 22.0 0.00 0.00 0.00 17 1014.2
20260504195542 70 244 9.0 19.0 0.00 0.00 0.00 18 1014.2
20260504195042 70 265 10.0 18.0 0.00 0.00 0.00 19 1014.1
20260504194600 70 236 8.0 22.0 0.00 0.00 0.00 19 1014.3
20260504194043 69 245 12.0 22.0 0.00 0.00 0.00 20 1014.3
20260504193543 70 246 11.0 19.0 0.00 0.00 0.00 20 1014.2
20260504193050 70 220 8.0 18.0 0.00 0.00 0.00 20 1014.3
20260504192543 69 245 9.0 23.0 0.00 0.00 0.00 19 1014.6
20260504192042 70 202 12.0 23.0 0.00 0.00 0.00 20 1014.3
20260504191559 70 266 8.0 20.0 0.00 0.00 0.00 20 1014.3
20260504191043 70 229 7.0 20.0 0.00 0.00 0.00 21 1014.4
20260504190544 70 292 9.0 18.0 0.00 0.00 0.00 21 1014.5
20260504190110 69 254 10.0 19.0 0.00 0.00 0.00 21 1014.5
20260504185545 69 176 10.0 19.0 0.00 0.00 0.00 22 1014.6
20260504185042 68 207 9.0 19.0 0.00 0.00 0.00 22 1014.9
20260504184608 68 253 10.0 19.0 0.00 0.00 0.00 21 1015.0
20260504184043 69 195 8.0 16.0 0.00 0.00 0.00 22 1015.0
20260504183542 69 242 9.0 22.0 0.00 0.00 0.00 21 1015.0
20260504183046 69 211 10.0 22.0 0.00 0.00 0.00 21 1015.2
20260504182543 69 216 7.0 19.0 0.00 0.00 0.00 22 1015.1
20260504182042 69 292 11.0 19.0 0.00 0.00 0.00 22 1015.2
20260504181551 70 186 6.0 14.0 0.00 0.00 0.00 22 1015.1
20260504181043 70 258 6.0 14.0 0.00 0.00 0.00 22 1015.3
20260504180543 69 273 8.0 16.0 0.00 0.00 0.00 21 1015.3
20260504180053 69 238 7.0 16.0 0.00 0.00 0.00 22 1015.3
20260504175544 69 186 6.0 14.0 0.00 0.00 0.00 23 1015.3
20260504175043 68 157 7.0 14.0 0.00 0.00 0.00 24 1015.6
20260504174551 68 260 6.0 15.0 0.00 0.00 0.00 24 1015.7
20260504174043 67 175 6.0 18.0 0.00 0.00 0.00 24 1015.7
20260504173542 68 248 8.0 18.0 0.00 0.00 0.00 24 1015.6
20260504173051 68 242 7.0 17.0 0.00 0.00 0.00 23 1015.6
20260504172542 69 243 5.0 11.0 0.00 0.00 0.00 24 1015.6
20260504172042 68 0 2.0 12.0 0.00 0.00 0.00 31 1015.7
20260504171557 68 226 3.0 12.0 0.00 0.00 0.00 29 1015.8
20260504171042 68 192 4.0 10.0 0.00 0.00 0.00 29 1015.7
20260504170544 67 170 4.0 10.0 0.00 0.00 0.00 31 1015.7
20260504151043 56 193 3.0 8.0 0.00 0.00 0.00 58 1016.9
20260504150542 55 244 3.0 10.0 0.00 0.00 0.00 60 1016.9
20260504141042 51 212 3.0 7.0 0.00 0.00 0.00 68 1016.7
20260504140542 51 196 3.0 6.0 0.00 0.00 0.00 69 1016.8
20260504140106 51 181 2.0 6.0 0.00 0.00 0.00 69 1016.9
20260504130543 48 89 2.0 4.0 0.00 0.00 0.00 71 1016.4
20260504120109 47 89 2.0 3.0 0.00 0.00 0.00 69 1015.6
20260504110547 48 89 1.0 3.0 0.00 0.00 0.00 66 1015.4
20260504100547 50 80 2.0 5.0 0.00 0.00 0.00 64 1015.7
20260504081549 53 235 1.0 9.0 0.00 0.00 0.00 57 1016.4
20260504081042 53 234 4.0 9.0 0.00 0.00 0.00 57 1016.3
20260504080542 53 172 1.0 7.0 0.00 0.00 0.00 57 1016.2